Regional Weather Roundup
Issued by NWS Jackson, KY

Home | Current Version | Previous Version | Graphics & Text | Print | Product List | Glossary On
Versions: 1 2 3 4 5 6 7 8 9 10 11 12 13 14 15 16 17 18 19 20 21 22 23 24 25 26 27 28 29 30 31 32 33 34 35 36 37 38 39 40 41 42 43 44 45 46 47 48 49 50
792
ASUS43 KJKL 020910
RWRJKL

EAST KENTUCKY HOURLY WEATHER ROUNDUP
NATIONAL WEATHER SERVICE JACKSON KY
500 AM EDT MON MAY 02 2016

NOTE: "FAIR" INDICATES FEW OR NO CLOUDS BELOW 12,000 FEET WITH
NO SIGNIFICANT WEATHER AND/OR OBSTRUCTIONS TO VISIBILITY.

* THESE REPORTS ARE NOT UNDER NWS QUALITY CONTROL AND MAY NOT
  REPORT WEATHER SUCH AS PRECIPITATION AND FOG.

KYZ079-080-083-085-087-088-110-112-115-119-120-021000
...EASTERN KENTUCKY...

CITY           SKY/WX    TMP DP  RH WIND       PRES   REMARKS
JACKSON        MOCLDY    64  60  87 VRB5      29.95S
LONDON         MOCLDY    65  60  84 S6        29.97S
SOMERSET*      CLOUDY    64  61  88 SW6       29.97R
MONTICELLO*    MOCLDY    66  62  87 W13       29.98R
WILLIAMSBURG*  SUNNY     59  59 100 SW3       29.98R
MIDDLESBORO*   CLOUDY    60  60 100 CALM      29.99R
HARLAN APT*    CLOUDY    59  59 100 CALM      30.00S VSB<1/4
HAZARD APT*    CLOUDY    64  64 100 SW9       29.97
BLACK MTN*       N/A     57  57 100 SW3         N/A
BIG SANDY APT* CLOUDY    63  61  95 SW3       29.96R
MOREHEAD APT*  CLOUDY    64  61  88 W5G16     29.95R
$$

KYZ035-036-041-042-044-050-067-078-099-021000
...CENTRAL KENTUCKY...

CITY           SKY/WX    TMP DP  RH WIND       PRES   REMARKS
MT STERLING*   CLOUDY    64  63  94 W8        29.96R
FLEMING/MASON* PTCLDY   N/A N/A N/A SW7       29.94R
DANVILLE*      CLOUDY    66  63  88 W9        29.96R
RICHMOND*      MOCLDY    66  63  88 SW8       29.94R
LEXINGTON      PTCLDY    63  59  87 W6        29.95R
FRANKFORT      CLOUDY    63  57  81 W5        29.94R
LOUISVILLE     CLOUDY    62  56  80 W8        29.95R
LEBANON*         N/A     64  61  88 W6        29.97R
BOWLING GREEN  CLOUDY    64  54  69 NW7       29.99R
$$

KYZ091>093-OHZ055-061-077-WVZ005-015-034-035-042-021000
...SOUTHERN OHIO/WEST VIRGINIA...

CITY           SKY/WX    TMP DP  RH WIND       PRES   REMARKS
COVINGTON      CLEAR     59  58  96 W8        29.91R
COLUMBUS       CLOUDY    57  57 100 CALM      29.87S
DAYTON         CLOUDY    53  53 100 E3        29.91R FOG
WILMINGTON     CLOUDY    58  58 100 W6        29.89R FOG
HUNTINGTON       N/A     61  59  93 S8        29.91R
CHARLESTON     MOCLDY    60  58  92 VRB3      29.91R
PINEVILLE*     CLOUDY    58  55  91 MISG      30.03S
BECKLEY          N/A     61  58  90 SW10      30.00R
$$

VAZ002-007-008-TNZ017-027-036-066-071-021000
...SOUTHWEST VIRGINIA/EAST TENNESSEE...

CITY           SKY/WX    TMP DP  RH WIND       PRES   REMARKS
WISE*          CLOUDY    63  61  94 SW9       30.04S
BRISTOL        CLOUDY    66  62  87 W3        30.01R
MORRISTOWN*    MOSUNNY   63  63 100 CALM      30.00S
SEVIERVILLE*   SUNNY     59  57  94 CALM      30.00S
KNOXVILLE      CLOUDY    64  61  90 SW7       29.99
OAK RIDGE      CLOUDY    67  64  90 W3        30.01R
CROSSVILLE     MOCLDY    61  57  87 SW5       30.03R
NASHVILLE      PTCLDY    66  62  87 CALM      29.97R
$$

...KEY TO REMARKS...
VSB - VISIBILITY IN MILES
WCI - WIND CHILL INDEX
HX  - HEAT INDEX

$$




USA.gov is the U.S. government's official web portal to all federal, state and local government web resources and services.